Hlavní strana
METAR-TAF:

METAR-TAF

Letiště :

Dayton, Ohio, Spojené státy americké

zeměpisná šířka: 39-35-20N, zeměpisná délka: 084-13-29W, výška: 292 m

Aktuální stav počasí

Zpráva byla vytvořena před 21 minutami, v 06:53 UTC
Severní vítr 4 kt
Teplota 6°C
Vlhkost vzduchu 81%
Tlak 1019 hPa
Viditelnost: 16.1 km
Jasno

METAR: KMGY 020653Z AUTO 36004KT 10SM CLR 06/03 A3009 RMK AO2 SLP193 T00610033

Čas: 03:14 (07:14 UTC)


TAF: chybějící

Stav a předpovědi počasí z více než 4 000 letišť (zprávy METAR a TAF).

Červené a žluté tečky na mapě představují dostupné meteorologické stanice.

Když kurzor umístíte na tečku, zobrazí se název stanice.

Pak kliknutím zobrazíte stav a předpověď počasí.

Chcete-li změnit mapu, kliknutím na zelené tlačítko se znaménkem +mapu přiblížíte, kliknutím na zelené tlačítko se znaménkem – mapu oddálíte a kliknutím na zelené šipky přejdete na sousední mapy.


METAR-TAF: